TimeCDT,TemperatureF,Dew PointF,Humidity,Sea Level PressureIn,VisibilityMPH,Wind Direction,Wind SpeedMPH,Gust SpeedMPH,PrecipitationIn,Events,Conditions,WindDirDegrees,DateUTC
12:53 AM,66.0,55.0,68,29.31,10.0,South,17.3,25.3,N/A,,Clear,170,2013-04-09 05:53:00
1:53 AM,64.9,54.0,68,29.30,10.0,SSE,19.6,27.6,N/A,,Clear,160,2013-04-09 06:53:00
2:53 AM,63.0,55.9,78,29.30,10.0,SSE,17.3,24.2,N/A,,Clear,160,2013-04-09 07:53:00
3:53 AM,63.0,57.0,81,29.28,10.0,South,16.1,23.0,N/A,,Clear,170,2013-04-09 08:53:00
4:39 AM,62.6,51.8,68,29.49,10.0,NW,17.3,25.3,N/A,,Scattered Clouds,310,2013-04-09 09:39:00
4:53 AM,54.0,39.0,57,29.38,6.0,NW,23.0,35.7,N/A,,Haze,320,2013-04-09 09:53:00
5:01 AM,51.8,37.4,58,29.52,5.0,NW,27.6,34.5,N/A,,Haze,320,2013-04-09 10:01:00
5:53 AM,46.9,36.0,66,29.47,5.0,NNW,24.2,32.2,N/A,,Haze,340,2013-04-09 10:53:00
6:53 AM,42.1,32.0,67,29.53,8.0,NNW,32.2,46.0,N/A,,Overcast,340,2013-04-09 11:53:00
7:28 AM,41.0,30.2,65,29.61,10.0,North,33.4,46.0,N/A,,Mostly Cloudy,350,2013-04-09 12:28:00
7:53 AM,41.0,30.9,67,29.58,10.0,NNW,32.2,41.4,N/A,,Overcast,340,2013-04-09 12:53:00
8:07 AM,39.2,30.2,70,29.69,10.0,NNW,29.9,44.9,N/A,,Overcast,340,2013-04-09 13:07:00
8:53 AM,37.0,28.0,70,29.66,10.0,North,28.8,46.0,N/A,,Overcast,350,2013-04-09 13:53:00
9:53 AM,30.9,21.0,67,29.70,10.0,North,36.8,44.9,N/A,,Overcast,350,2013-04-09 14:53:00
10:53 AM,30.0,19.0,64,29.75,10.0,North,36.8,44.9,N/A,,Overcast,350,2013-04-09 15:53:00
11:53 AM,28.9,18.0,64,29.81,10.0,NNW,29.9,46.0,N/A,,Overcast,340,2013-04-09 16:53:00
12:53 PM,28.9,18.0,64,29.83,10.0,North,27.6,41.4,N/A,,Overcast,350,2013-04-09 17:53:00
1:53 PM,28.0,17.1,63,29.85,10.0,North,31.1,40.3,N/A,,Overcast,350,2013-04-09 18:53:00
2:53 PM,28.9,17.1,61,29.85,10.0,North,31.1,40.3,N/A,,Overcast,360,2013-04-09 19:53:00
3:53 PM,30.0,17.1,59,29.88,10.0,NNW,21.9,36.8,N/A,,Overcast,340,2013-04-09 20:53:00
4:53 PM,30.0,16.0,56,29.90,10.0,NNW,29.9,36.8,N/A,,Overcast,340,2013-04-09 21:53:00
5:17 PM,32.0,15.8,51,29.92,10.0,NNW,25.3,35.7,N/A,,Mostly Cloudy,340,2013-04-09 22:17:00
5:53 PM,30.0,15.1,54,29.94,10.0,NNW,31.1,39.1,N/A,,Overcast,340,2013-04-09 22:53:00
6:53 PM,28.9,12.9,51,29.94,10.0,North,34.5,42.6,N/A,,Mostly Cloudy,350,2013-04-09 23:53:00
7:53 PM,27.0,12.0,53,29.97,10.0,NNW,28.8,40.3,N/A,,Overcast,340,2013-04-10 00:53:00
8:53 PM,26.1,12.0,55,30.01,10.0,NNW,31.1,43.7,N/A,,Overcast,340,2013-04-10 01:53:00
9:53 PM,25.0,10.9,55,30.05,10.0,North,32.2,39.1,N/A,,Overcast,350,2013-04-10 02:53:00
10:53 PM,24.1,10.0,55,30.06,10.0,North,29.9,39.1,N/A,,Overcast,360,2013-04-10 03:53:00
11:53 PM,23.0,9.0,55,30.09,10.0,North,29.9,38.0,N/A,,Overcast,360,2013-04-10 04:53:00